Flag for India Weather past 2 weeks in Amritsar, Punjab, India

75 °F


Feels Like: 76 °F
Forecast: 72 / 94 °F
Wind: No wind

Location: Amritsar Airport

Current Time: Oct 8, 2015 at 10:43:28 PM

Latest Report: Oct 8, 2015 at 10:00 PM

Visibility: 2 mi

Pressure: 29.77 "Hg

Humidity: 78%

Dew point: 68 °F

Location of AmritsarLocation

Historic Weather in Amritsar — Graph


Amritsar temperature yesterday

Maximum temperature yesterday: 91 °F (at 2:00 PM)
Minimum temperature yesterday: 72 °F (at 5:30 AM)
Average temperature yesterday: 81 °F

Past Weeks' High & Low Weather Summary

High93 °F (Oct 3, 3:30 PM)100% (Sep 23, 9:30 PM)29.98 "Hg (Sep 23, 9:30 PM)
Low64 °F (Sep 30, 6:30 AM)38% (Oct 8, 3:30 PM)29.62 "Hg (Sep 25, 4:30 PM)
Average79 °F77%29.82 "Hg
* Reported Sep 23 8:30 PM — Oct 8 9:00 PM, Amritsar, Weather by CustomWeather, © 2015

Note: Actual official high and low records may vary slightly from our data, if they occured in-between our weather recording intervals... More about our weather records


Amritsar weather history for previous 24 hours

Time TempWeatherWind HumidityBarometerVisibility
9:00 PM
Thu, Oct 8
77 °FHaze.No wind74%29.77 "Hg2 mi
8:30 PM77 °FHaze.No wind79%29.77 "Hg2 mi
8:00 PM79 °FHaze.No wind70%29.77 "Hg2 mi
7:30 PM81 °FHaze.No wind70%29.77 "Hg2 mi
7:00 PM82 °FHaze.No wind62%29.74 "Hg3 mi
6:30 PM86 °FHaze.No wind52%29.74 "Hg3 mi
6:00 PM88 °FClear.No wind49%29.74 "Hg3 mi
5:30 PM90 °FClear.No wind43%29.74 "Hg3 mi
5:00 PM91 °FClear.No wind41%29.74 "Hg3 mi
4:30 PM91 °FClear.1 mph41%29.74 "Hg3 mi
3:30 PM91 °FClear.5 mph38%29.77 "Hg3 mi
3:00 PM93 °FClear.3 mph39%29.77 "Hg3 mi
2:30 PM91 °FClear.6 mph41%29.77 "Hg3 mi
2:00 PM91 °FClear.5 mph41%29.80 "Hg3 mi
1:30 PM91 °FClear.6 mph44%29.80 "Hg3 mi
12:00 PM90 °FClear.7 mph46%29.86 "Hg3 mi
11:30 AM90 °FClear.5 mph43%29.86 "Hg3 mi
11:00 AM90 °FClear.2 mph43%29.86 "Hg2 mi
10:30 AM86 °FClear.2 mph52%29.86 "Hg2 mi
10:00 AM84 °FHaze.No wind55%29.86 "Hg2 mi
9:00 AM81 °FHaze.No wind66%29.86 "Hg1 mi
8:30 AM75 °FFog.No wind83%29.86 "Hg1 mi
8:00 AM73 °FFog.No wind89%29.86 "Hg1 mi
7:30 AM70 °FFog.No wind94%29.86 "Hg1 mi
7:00 AM70 °FFog.No wind94%29.83 "Hg1 mi
6:30 AM68 °FFog.No wind100%29.83 "Hg1 mi
6:00 AM68 °FFog.No wind94%29.83 "Hg1 mi
5:30 AM68 °FFog.No wind94%29.83 "Hg1 mi
5:00 AM68 °FFog.No wind94%29.83 "Hg1 mi
4:30 AM70 °FFog.No wind94%29.83 "Hg2 mi
4:00 AM70 °FFog.No wind94%29.83 "Hg2 mi
3:30 AM70 °FFog.No wind94%29.83 "Hg2 mi
3:00 AM70 °FFog.No wind100%29.83 "Hg2 mi
2:30 AM70 °FFog.No wind94%29.83 "Hg2 mi
2:00 AM72 °FFog.No wind88%29.83 "Hg2 mi
1:30 AM72 °FFog.No wind94%29.83 "Hg2 mi
1:00 AM72 °FFog.No wind88%29.83 "Hg2 mi
12:30 AM73 °FFog.No wind89%29.83 "Hg2 mi
11:30 PM
Wed, Oct 7
72 °FFog.No wind94%29.86 "Hg2 mi
11:00 PM72 °FFog.No wind94%29.86 "Hg2 mi
10:30 PM73 °FFog.No wind89%29.86 "Hg2 mi
10:00 PM75 °FFog.No wind83%29.86 "Hg2 mi
Weather by CustomWeather, © 2015

See weather overviewHow to use our weather pages